Home   Weather   Dundee   Past weeks

Flag for United Kingdom Past Weather in Dundee, Scotland, United Kingdom — Yesterday and Last 2 Weeks

Now
45 °F

Clear.


Feels Like: 43 °F
Forecast: 56 / 59 °F
Wind: 3 mph from Northeast

Location: Leuchars

Current Time: Jul 21, 2017 at 5:50:00 am

Latest Report: Jul 21, 2017 at 4:50 am


Visibility: 10 mi

Pressure: 29.68 "Hg

Humidity: 100%

Dew Point: 45 °F

Location of DundeeLocation

Past Weather in Dundee — Graph

°F

Dundee Temperature Yesterday

Maximum temperature yesterday: 64 °F (at 2:50 pm)
Minimum temperature yesterday: 50 °F (at 10:50 pm)
Average temperature yesterday: 58 °F

High & Low Weather Summary for the Past Weeks

 TemperatureHumidityPressure
High73 °F (Jul 17, 3:50 pm)100% (Jul 6, 4:50 am)30.18 "Hg (Jul 6, 4:50 am)
Low45 °F (Jul 21, 3:50 am)44% (Jul 17, 6:50 pm)29.53 "Hg (Jul 20, 2:50 am)
Average59 °F80%29.91 "Hg
* Reported Jul 6 3:50 am — Jul 21 3:50 am, Dundee. Weather by CustomWeather, © 2017

Note: Actual official high and low records may vary slightly from our data, if they occured in-between our weather recording intervals... More about our weather records

Advertising

Dundee Weather History for the Previous 24 Hours

Scroll right to see more
 ConditionsComfort  
Time TempWeatherWind HumidityBarometerVisibility
3:50 am
Fri, Jul 21
45 °FClear.3 mph100%29.68 "Hg10 mi
2:50 am46 °FClear.1 mph100%29.68 "Hg10 mi
1:50 am46 °FClear.6 mph93%29.68 "Hg10 mi
12:50 am50 °FClear.6 mph88%29.68 "Hg10 mi
11:50 pm
Thu, Jul 20
52 °FClear.8 mph82%29.68 "Hg10 mi
10:50 pm50 °FClear.6 mph88%29.65 "Hg10 mi
9:50 pm55 °FClear.3 mph77%29.65 "Hg10 mi
8:50 pm57 °FSunny.6 mph72%29.62 "Hg10 mi
7:50 pm57 °FSunny.13 mph77%29.62 "Hg10 mi
6:50 pm59 °FSunny.15 mph72%29.59 "Hg10 mi
5:50 pm59 °FSprinkles. Broken clouds.7 mph72%29.59 "HgN/A
4:50 pm63 °FBroken clouds.13 mph59%29.59 "HgN/A
3:50 pm63 °FPartly sunny.14 mph64%29.59 "HgN/A
2:50 pm64 °FBroken clouds.13 mph64%29.56 "HgN/A
1:50 pm63 °FScattered clouds.15 mph64%29.56 "HgN/A
12:50 pm63 °FBroken clouds.16 mph73%29.56 "HgN/A
11:50 am61 °FPartly sunny.14 mph77%29.56 "HgN/A
10:50 am61 °FScattered showers. Broken clouds.14 mph88%29.56 "HgN/A
9:50 am59 °FBroken clouds.10 mph88%29.56 "HgN/A
8:50 am57 °FLight rain. Partly sunny.13 mph94%29.56 "HgN/A
7:50 am57 °FLow clouds.14 mph94%29.53 "HgN/A
6:50 am59 °FPartly sunny.7 mph100%29.53 "HgN/A
5:50 am57 °FFog.2 mph100%29.53 "Hg2 mi
Weather by CustomWeather, © 2017

See weather overviewHow to use our weather pages